Temperature
13 13 13 13 13 13 13 13 13 12 11 10 10 9 8 8 7 7 6 6 6 5 5 4 4 3 2 2 1 0 -1 -2 -3 -3 -3 -3 -3 -3 -3 -4 -4 -5 -5
12 12 12 12 12 12 12 12 11 11 10 9 9 8 7 6 6 5 5 5 4 4 3 3 2 2 1 1 0 -1 -1 -2 -3 -4 -4 -4 -4 -4 -5 -5 -5 -6 -6
11 11 11 11 11 11 11 10 10 9 9 8 7 6 5 5 4 4 3 3 3 3 2 2 1 0 0 -0 -1 -2 -2 -3 -4 -5 -6 -6 -6 -6 -6 -6 -7 -6 -6
10 10 10 10 10 10 10 9 9 8 7 6 5 5 4 4 3 3 2 2 2 1 1 0 -0 -1 -1 -2 -2 -3 -4 -5 -6 -6 -7 -7 -7 -7 -7 -8 -8 -7 -7
9 9 9 9 9 8 8 7 7 6 5 4 4 3 3 2 2 2 2 1 1 1 -0 -1 -1 -1 -2 -3 -4 -5 -6 -6 -7 -7 -8 -8 -8 -8 -8 -8 -9 -8 -7
7 7 7 6 6 6 5 5 4 3 3 2 2 2 2 1 1 1 1 1 0 -0 -1 -1 -2 -2 -3 -3 -5 -6 -7 -7 -8 -8 -8 -9 -9 -8 -9 -9 -9 -9 -9
5 4 4 4 4 3 3 3 2 1 1 1 1 1 1 1 1 1 0 -0 -1 -1 -2 -2 -2 -3 -4 -5 -5 -6 -7 -8 -8 -9 -9 -9 -9 -9 -9 -9 -9 -9 -9
3 3 2 2 2 1 1 1 0 0 0 0 1 1 1 1 0 -0 -1 -1 -2 -2 -2 -3 -4 -4 -5 -6 -7 -8 -8 -8 -8 -8 -9 -9 -9 -9 -9 -9 -9 -9 -9
2 1 1 1 1 0 0 -0 -0 0 0 0 0 0 -0 -1 -1 -1 -2 -2 -3 -3 -3 -4 -5 -6 -6 -7 -9 -9 -9 -8 -8 -9 -9 -9 -9 -9 -9 -9 -9 -9 -10
0 0 0 0 0 0 -0 -0 0 0 0 -0 -0 -1 -1 -2 -2 -3 -3 -3 -4 -4 -4 -5 -6 -7 -8 -9 -9 -9 -9 -9 -9 -9 -8 -8 -8 -8 -8 -8 -9 -10 -10
-0 -0 -0 -0 0 0 0 -0 -0 -0 -1 -1 -1 -2 -2 -2 -3 -4 -5 -6 -6 -6 -6 -6 -6 -7 -8 -9 -9 -9 -9 -9 -9 -9 -8 -8 -7 -7 -7 -7 -8 -9 -10
-0 -0 0 -0 -0 -0 -0 -1 -1 -1 -1 -2 -2 -2 -3 -3 -4 -5 -5 -6 -7 -8 -8 -7 -8 -9 -9 -9 -9 -9 -9 -9 -9 -9 -8 -8 -8 -7 -7 -7 -7 -8 -8
0 0 -0 -0 -1 -1 -1 -1 -1 -2 -2 -2 -3 -3 -4 -4 -5 -5 -6 -7 -7 -8 -9 -9 -9 -10 -10 -9 -9 -9 -9 -9 -9 -8 -8 -8 -8 -7 -7 -7 -7 -7 -7
0 -0 -1 -1 -1 -1 -2 -2 -2 -2 -2 -3 -3 -4 -4 -5 -5 -6 -7 -8 -8 -9 -9 -9 -9 -9 -9 -9 -9 -9 -9 -9 -9 -9 -8 -8 -8 -8 -8 -8 -8 -8 -8
-0 -1 -1 -1 -1 -1 -2 -2 -2 -2 -3 -3 -4 -4 -5 -6 -7 -8 -9 -9 -10 -10 -10 -9 -9 -9 -9 -8 -8 -8 -8 -8 -8 -8 -8 -8 -8 -8 -8 -8 -8 -8 -8
-0 -1 -1 -1 -1 -2 -2 -2 -3 -3 -4 -5 -5 -6 -8 -8 -9 -9 -9 -10 -10 -10 -10 -9 -9 -9 -9 -9 -9 -8 -8 -8 -8 -8 -8 -8 -8 -8 -8 -8 -8 -8 -8
-0 -1 -1 -1 -2 -2 -3 -3 -4 -5 -6 -6 -7 -8 -8 -9 -9 -9 -9 -10 -9 -10 -10 -10 -9 -9 -9 -9 -9 -9 -8 -8 -8 -8 -8 -8 -8 -8 -8 -8 -8 -8 -8
-1 -1 -2 -2 -3 -3 -3 -4 -5 -5 -6 -7 -7 -8 -8 -9 -9 -10 -10 -9 -9 -9 -10 -10 -10 -9 -9 -9 -9 -9 -8 -8 -8 -8 -8 -8 -8 -8 -8 -8 -8 -8 -9
-2 -2 -2 -3 -3 -4 -4 -5 -6 -6 -7 -7 -8 -8 -9 -9 -10 -10 -10 -10 -10 -10 -10 -10 -10 -9 -9 -9 -9 -8 -8 -8 -8 -8 -8 -8 -8 -8 -8 -8 -8 -8 -8
-2 -2 -3 -3 -4 -4 -5 -6 -6 -7 -8 -8 -9 -9 -9 -9 -9 -10 -10 -10 -10 -10 -10 -9 -9 -9 -9 -9 -8 -8 -8 -8 -8 -8 -8 -8 -8 -8 -8 -8 -8 -8 -8
-2 -3 -3 -4 -4 -5 -6 -6 -7 -8 -8 -9 -9 -10 -10 -10 -10 -10 -10 -10 -10 -10 -10 -9 -9 -9 -9 -8 -8 -8 -8 -8 -8 -8 -8 -7 -7 -7 -7 -8 -8 -8 -8
-3 -3 -4 -4 -5 -6 -6 -7 -8 -8 -9 -9 -9 -10 -10 -10 -10 -10 -10 -10 -10 -10 -10 -9 -9 -9 -9 -8 -8 -8 -8 -8 -8 -8 -7 -7 -7 -7 -7 -7 -8 -8 -8
-3 -4 -4 -5 -6 -6 -7 -8 -8 -9 -9 -10 -10 -10 -10 -10 -10 -10 -10 -10 -10 -10 -9 -9 -9 -8 -8 -8 -8 -8 -8 -8 -8 -8 -7 -7 -7 -7 -7 -7 -7 -8 -8
-4 -4 -5 -6 -6 -7 -8 -8 -9 -9 -10 -10 -10 -10 -10 -10 -10 -10 -10 -10 -9 -9 -9 -9 -8 -8 -8 -8 -8 -8 -8 -8 -8 -7 -7 -7 -7 -7 -7 -7 -7 -7 -7
-4 -5 -5 -6 -7 -8 -8 -9 -9 -10 -10 -10 -10 -10 -10 -10 -10 -10 -10 -9 -9 -9 -9 -9 -8 -8 -8 -8 -8 -8 -8 -8 -8 -7 -7 -7 -7 -7 -7 -7 -7 -7 -7
-5 -5 -6 -7 -7 -8 -9 -9 -9 -10 -10 -10 -10 -10 -10 -10 -10 -10 -9 -9 -9 -9 -8 -8 -8 -8 -8 -8 -8 -8 -8 -8 -8 -7 -7 -7 -7 -7 -7 -7 -7 -7 -7
Wind_Speed
6 7 9 10 10 12 12 13 12 12 14 14 14 13 12 11 9 8 7 7 7 5 4 4 3 3 3 3 3 3 4 4 6 5 4 4 6 8 13 16 18 18 19
6 7 9 10 11 11 11 12 13 14 14 14 14 13 12 11 9 9 8 6 6 5 3 2 2 2 3 3 3 4 4 5 6 8 5 4 7 8 8 9 15 17 17
5 8 10 11 11 12 12 13 14 15 14 14 13 13 12 11 10 8 7 6 5 4 2 0 2 3 4 4 5 5 5 6 6 6 7 5 5 7 8 10 10 11 17
6 8 9 10 11 12 13 14 14 15 15 14 13 13 13 12 10 9 8 7 5 4 2 1 3 4 6 6 5 7 6 6 6 6 7 7 6 7 7 8 11 7 10
9 10 10 11 13 13 14 14 14 14 15 14 15 14 12 10 8 8 7 6 4 2 2 3 4 6 7 7 6 6 6 5 5 6 7 8 8 7 8 8 13 11 10
12 12 12 14 15 15 15 15 15 15 14 14 13 13 11 8 11 10 7 4 2 1 3 4 5 6 8 10 12 13 12 8 6 6 7 10 11 10 9 11 12 14 11
13 13 14 15 16 15 16 16 15 14 14 13 11 10 9 9 10 8 6 4 1 1 3 4 4 5 8 6 10 14 13 16 16 11 11 11 13 12 13 14 12 14 15
14 14 14 15 16 15 15 15 13 12 11 9 8 7 6 6 8 6 6 4 1 1 2 3 4 5 7 9 7 7 7 8 12 10 10 12 12 12 12 13 13 13 12
14 14 14 15 15 14 14 12 10 10 8 6 5 5 5 5 6 5 5 2 1 3 4 4 5 6 13 15 9 7 8 9 15 20 21 20 23 23 18 10 9 11 15
12 13 12 13 13 13 12 10 8 7 7 5 5 4 4 3 4 3 3 3 3 4 4 5 8 11 15 16 9 8 10 10 10 11 12 15 13 15 19 9 7 10 12
11 12 11 11 11 11 10 8 7 6 6 5 5 4 3 1 1 2 3 2 2 3 4 4 6 15 17 17 16 8 13 14 7 7 8 10 9 8 8 6 6 9 12
11 11 11 10 9 8 8 7 6 6 6 5 5 4 4 4 4 5 7 7 7 3 4 5 7 17 18 18 14 15 19 15 6 8 9 9 9 10 10 10 10 10 13
11 11 10 10 8 7 7 7 6 5 5 4 3 3 2 3 5 8 9 10 12 6 6 12 15 17 16 11 14 17 13 7 7 8 9 10 8 9 10 10 10 10 13
11 10 8 8 8 7 6 5 5 4 4 3 3 2 2 3 4 4 4 5 8 8 7 9 13 13 11 12 11 9 7 7 8 8 10 11 10 9 10 9 11 11 12
10 8 8 7 7 6 5 4 4 3 3 3 2 1 1 3 5 9 7 5 5 6 6 3 4 5 6 6 6 6 6 7 8 8 10 11 11 11 11 9 8 9 11
9 7 5 5 5 5 5 5 7 5 6 4 1 1 2 5 9 11 13 14 13 12 6 4 6 6 7 8 9 9 9 8 8 9 10 10 11 11 12 11 9 11 12
8 6 5 5 5 4 4 4 3 5 7 8 8 7 7 8 10 12 13 12 11 10 4 5 6 6 7 7 7 8 10 9 9 9 10 10 11 11 11 12 12 12 13
8 7 6 4 4 4 3 3 2 2 2 3 5 9 9 9 10 11 11 9 6 6 4 5 6 7 7 8 8 9 10 10 9 9 10 11 10 11 12 12 12 13 14
7 5 4 4 4 4 3 3 3 2 2 2 3 5 8 8 9 9 9 4 5 6 6 6 7 7 7 8 8 9 9 10 11 11 11 11 11 11 12 12 13 18 17
5 8 6 4 4 3 3 3 2 2 2 3 3 4 4 4 3 5 4 4 4 6 6 7 7 7 8 8 8 9 9 10 11 10 11 11 11 11 13 15 14 14 14
5 5 7 5 3 3 2 2 2 2 2 3 3 6 8 3 4 5 5 5 5 6 7 8 8 8 8 7 8 9 10 11 10 11 11 11 12 12 13 13 14 14 14
5 4 3 3 2 2 2 2 2 2 3 4 4 5 8 4 4 5 6 6 6 6 7 8 8 8 8 8 9 10 10 11 11 11 12 12 12 13 13 12 13 13 13
5 4 3 2 2 2 3 2 2 2 3 4 4 4 5 5 5 5 6 7 7 7 7 7 9 9 8 10 10 9 10 12 12 13 14 14 13 12 12 12 14 15 14
5 4 3 2 1 1 1 2 2 3 4 4 4 5 5 5 6 7 7 7 8 8 8 9 9 11 13 13 13 14 14 16 16 13 15 14 13 12 12 12 13 14 14
4 3 2 1 0 1 2 2 3 3 4 5 5 5 6 6 7 7 7 8 9 9 10 12 11 12 14 17 18 18 21 25 24 19 13 11 12 12 12 13 12 14 14
3 2 2 1 0 1 2 3 4 4 4 5 5 5 6 7 7 7 8 8 8 10 10 11 13 16 19 19 19 22 25 26 26 24 14 10 11 12 13 12 14 13 13
Wind_Direction
204 184 167 161 153 153 156 154 150 146 147 149 146 143 140 134 130 125 122 126 127 129 136 156 173 169 178 191 191 194 204 201 249 264 247 271 282 286 298 297 298 295 293
188 165 155 147 145 146 146 145 144 143 143 142 140 136 132 126 121 122 125 123 127 132 136 149 194 204 212 214 213 223 229 225 239 273 274 271 270 279 283 287 299 297 294
148 141 138 139 139 138 138 138 137 136 134 133 131 129 124 118 113 112 114 109 102 98 94 148 253 237 241 238 235 238 242 249 241 265 283 274 273 281 286 287 286 284 290
104 117 122 124 124 125 126 127 128 127 126 123 120 117 113 110 108 108 103 93 83 68 42 317 269 247 245 245 245 245 248 255 260 268 281 286 283 282 282 291 299 284 287
83 91 98 103 107 110 112 113 113 113 113 112 110 105 103 103 104 101 95 89 77 47 341 305 287 273 264 261 258 248 243 249 260 269 283 293 296 299 297 296 300 299 287
81 86 92 98 99 99 101 101 100 100 102 102 102 102 99 102 109 106 105 102 100 343 309 306 300 291 293 300 298 295 289 281 280 277 285 292 295 293 294 295 297 302 300
87 88 90 93 94 95 96 95 95 94 93 93 95 99 102 112 117 115 115 117 98 336 314 316 321 322 328 305 295 297 295 295 295 294 291 288 290 290 290 290 288 290 294
89 91 92 94 95 94 94 94 93 94 95 98 101 107 115 131 133 130 123 114 82 326 310 304 299 299 304 298 276 274 269 278 284 284 273 275 277 277 275 285 293 295 289
90 91 93 97 98 98 97 97 97 100 99 100 110 126 135 150 156 151 142 142 237 285 285 289 303 294 305 309 305 292 285 281 291 292 291 292 295 299 302 301 297 298 298
92 94 96 99 102 103 103 100 98 101 107 114 112 118 135 153 186 194 178 176 246 276 286 291 311 315 311 313 306 295 294 290 286 291 295 297 295 293 297 288 278 287 292
94 95 93 94 98 100 99 99 104 105 103 97 91 74 69 72 263 285 301 199 242 286 301 301 301 317 314 314 315 306 300 305 309 310 305 299 297 291 288 275 264 273 284
94 93 92 92 95 99 99 95 95 99 93 85 83 68 44 23 10 348 345 342 335 315 303 293 295 311 315 319 320 311 312 321 323 310 303 300 299 299 298 294 284 275 269
96 93 91 88 86 92 98 98 90 87 92 88 89 82 39 16 360 1 349 339 331 324 297 307 311 316 323 324 315 317 323 320 306 302 301 298 293 288 293 295 292 284 279
97 93 92 91 86 77 79 88 95 99 101 102 99 79 18 350 327 307 296 305 315 309 298 307 321 326 325 319 317 317 309 298 303 299 300 300 301 298 297 296 299 304 302
96 92 86 84 87 81 76 84 102 112 132 123 135 152 333 311 308 330 334 313 304 297 325 350 336 324 322 318 314 309 307 311 310 304 303 304 305 303 301 300 290 296 294
103 93 90 89 84 81 79 61 61 68 65 68 103 293 277 310 330 340 333 332 334 337 353 335 324 320 318 318 318 317 315 311 308 307 303 300 300 301 301 300 293 295 295
108 104 93 89 87 84 82 83 60 35 42 39 27 7 357 351 347 340 336 341 344 348 343 315 310 308 308 308 307 307 307 306 303 301 299 299 299 299 299 300 301 299 297
99 104 104 99 99 97 94 90 85 64 24 359 2 2 357 353 350 346 349 353 342 342 317 305 304 305 305 305 305 305 304 306 305 303 300 299 298 299 299 299 299 298 299
106 106 105 103 97 93 90 88 76 62 37 352 333 343 352 354 357 356 359 344 320 318 314 306 301 300 300 300 300 300 300 301 301 301 300 298 299 299 299 298 298 299 301
114 124 118 108 97 90 83 79 65 41 13 351 335 324 322 353 346 335 334 312 308 308 308 305 302 298 299 299 299 299 300 300 300 299 298 299 299 298 297 298 298 299 300
110 115 113 102 96 95 86 68 43 13 349 334 320 321 339 355 325 316 317 312 306 306 306 304 301 300 297 296 296 296 296 297 296 296 297 298 299 299 298 297 298 299 302
118 113 113 112 101 88 85 58 26 354 337 327 314 320 339 337 310 307 309 308 304 298 297 299 298 295 293 294 295 296 296 295 296 296 296 297 298 298 299 301 304 308 309
117 115 107 96 72 54 58 21 353 333 322 314 313 318 323 321 315 308 306 307 307 304 302 299 298 297 294 294 291 286 286 288 290 292 296 297 298 301 304 307 309 311 313
118 120 118 105 77 42 9 338 328 324 321 314 312 312 311 312 310 307 305 305 305 304 302 300 296 294 296 301 299 294 287 286 288 289 292 298 305 309 310 309 310 311 314
120 122 123 117 58 343 324 316 316 317 316 314 310 310 310 307 304 303 303 302 303 302 302 304 300 300 301 302 301 299 298 303 306 308 307 311 312 311 310 310 312 314 315
130 134 140 154 279 304 303 302 301 300 297 298 297 297 298 297 298 299 301 301 305 307 306 306 302 304 304 304 301 303 307 312 315 318 320 313 313 313 316 315 314 316 315
Height
1413 1414 1415 1417 1420 1425 1429 1434 1438 1442 1447 1451 1455 1460 1465 1469 1473 1477 1480 1482 1484 1486 1487 1487 1487 1486 1485 1483 1481 1479 1477 1474 1469 1465 1464 1462 1459 1455 1451 1447 1443 1439 1435
1408 1409 1410 1413 1416 1421 1425 1429 1433 1438 1442 1446 1451 1456 1461 1466 1470 1474 1477 1479 1481 1483 1483 1483 1482 1481 1480 1478 1476 1474 1471 1468 1464 1458 1455 1453 1451 1447 1443 1439 1435 1431 1428
1403 1404 1406 1409 1413 1417 1421 1425 1430 1434 1438 1443 1448 1453 1459 1463 1468 1471 1474 1476 1478 1479 1479 1478 1477 1476 1475 1473 1470 1468 1465 1462 1458 1453 1448 1446 1443 1440 1435 1431 1427 1423 1420
1400 1401 1403 1406 1410 1414 1418 1423 1427 1431 1436 1440 1446 1452 1457 1462 1466 1469 1472 1474 1475 1475 1474 1473 1472 1471 1470 1467 1465 1462 1459 1455 1452 1448 1443 1439 1436 1432 1428 1423 1417 1414 1411
1399 1400 1402 1405 1408 1413 1417 1421 1425 1430 1435 1440 1445 1451 1456 1461 1465 1468 1470 1470 1470 1469 1469 1468 1467 1466 1464 1462 1459 1456 1453 1449 1446 1442 1437 1433 1429 1426 1422 1417 1412 1406 1402
1400 1401 1403 1405 1409 1413 1417 1421 1425 1431 1436 1442 1447 1452 1457 1460 1463 1465 1466 1466 1466 1465 1465 1464 1463 1461 1458 1456 1453 1451 1448 1445 1440 1437 1432 1428 1423 1420 1416 1411 1406 1400 1394
1403 1403 1405 1408 1411 1415 1419 1423 1429 1434 1440 1445 1450 1455 1458 1459 1461 1462 1462 1463 1462 1462 1461 1460 1458 1455 1452 1449 1447 1444 1441 1438 1436 1433 1427 1422 1418 1414 1410 1405 1401 1396 1390
1407 1408 1410 1412 1415 1419 1423 1428 1434 1439 1445 1449 1452 1455 1457 1458 1458 1459 1460 1460 1460 1459 1457 1454 1452 1449 1446 1443 1440 1437 1434 1432 1429 1425 1421 1416 1413 1409 1406 1401 1396 1389 1383
1411 1412 1415 1417 1420 1424 1429 1434 1439 1443 1447 1451 1453 1455 1456 1457 1457 1457 1457 1457 1456 1455 1452 1450 1446 1443 1440 1437 1435 1431 1428 1425 1422 1418 1415 1411 1408 1404 1400 1395 1389 1382 1374
1415 1417 1420 1423 1426 1430 1434 1439 1443 1446 1449 1451 1453 1455 1456 1456 1456 1456 1454 1453 1452 1450 1447 1445 1441 1438 1435 1433 1430 1426 1421 1417 1414 1410 1407 1403 1400 1397 1393 1389 1383 1377 1369
1421 1423 1426 1429 1432 1436 1439 1443 1446 1448 1450 1452 1454 1454 1455 1455 1454 1453 1451 1449 1447 1444 1441 1439 1436 1432 1430 1427 1424 1420 1416 1413 1408 1404 1400 1396 1393 1390 1386 1382 1378 1372 1365
1427 1429 1432 1435 1438 1441 1444 1446 1448 1450 1452 1453 1453 1453 1453 1453 1451 1450 1448 1446 1443 1440 1437 1434 1430 1428 1425 1422 1418 1414 1411 1407 1403 1399 1395 1391 1387 1383 1379 1375 1370 1365 1359
1433 1435 1438 1440 1443 1445 1447 1449 1450 1452 1452 1452 1452 1452 1451 1450 1448 1446 1444 1441 1439 1436 1432 1429 1427 1424 1420 1416 1413 1410 1406 1402 1398 1394 1390 1385 1381 1377 1372 1367 1361 1356 1350
1439 1441 1443 1445 1447 1448 1450 1451 1452 1452 1452 1451 1451 1449 1448 1446 1444 1442 1440 1437 1434 1431 1428 1425 1422 1419 1415 1412 1409 1406 1402 1399 1394 1390 1385 1380 1376 1371 1365 1360 1353 1347 1339
1444 1445 1447 1448 1450 1450 1451 1452 1451 1451 1451 1450 1448 1447 1445 1443 1441 1440 1437 1434 1431 1428 1424 1421 1417 1414 1411 1407 1404 1401 1398 1395 1391 1386 1381 1375 1370 1365 1359 1354 1347 1341 1334
1448 1449 1450 1451 1452 1452 1452 1452 1451 1450 1449 1447 1446 1444 1442 1441 1439 1436 1433 1430 1427 1424 1420 1417 1414 1410 1407 1403 1400 1397 1394 1391 1386 1382 1377 1371 1365 1359 1353 1348 1342 1336 1328
1451 1452 1452 1453 1453 1452 1452 1451 1450 1449 1447 1445 1443 1441 1440 1437 1435 1432 1429 1426 1423 1420 1417 1414 1410 1407 1404 1401 1397 1394 1390 1387 1382 1378 1372 1367 1361 1355 1349 1342 1336 1330 1323
1453 1453 1453 1453 1453 1452 1451 1450 1448 1446 1445 1443 1441 1439 1436 1434 1431 1428 1426 1423 1420 1417 1414 1411 1408 1405 1402 1398 1395 1391 1387 1383 1379 1374 1369 1363 1357 1351 1344 1337 1331 1325 1318
1454 1454 1453 1453 1452 1451 1449 1448 1446 1444 1442 1440 1438 1436 1433 1431 1428 1426 1423 1420 1417 1414 1411 1409 1406 1403 1399 1396 1392 1388 1384 1380 1375 1370 1365 1359 1353 1347 1340 1333 1327 1321 1314
1454 1454 1453 1452 1451 1449 1447 1446 1444 1441 1439 1437 1435 1433 1430 1428 1425 1423 1420 1418 1415 1412 1409 1406 1404 1401 1397 1394 1390 1386 1381 1377 1372 1367 1362 1356 1350 1344 1337 1330 1324 1317 1310
1454 1453 1452 1450 1449 1447 1445 1443 1441 1439 1437 1435 1432 1430 1428 1425 1423 1420 1418 1415 1413 1410 1407 1404 1401 1398 1395 1391 1387 1383 1378 1374 1369 1364 1358 1353 1346 1340 1334 1327 1321 1314 1308
1453 1452 1450 1449 1447 1445 1443 1441 1439 1436 1434 1432 1430 1428 1426 1423 1421 1418 1416 1413 1411 1408 1405 1402 1399 1396 1392 1388 1384 1380 1375 1371 1366 1361 1355 1350 1344 1337 1331 1325 1318 1312 1305
1451 1450 1448 1447 1445 1443 1440 1438 1436 1434 1432 1429 1427 1425 1423 1420 1418 1416 1413 1411 1408 1406 1403 1400 1396 1393 1390 1386 1382 1378 1373 1368 1363 1359 1353 1347 1341 1335 1329 1323 1316 1309 1302
1449 1448 1446 1444 1442 1440 1438 1436 1433 1431 1429 1427 1425 1422 1420 1418 1416 1413 1411 1408 1406 1403 1401 1397 1394 1391 1387 1383 1379 1375 1371 1366 1361 1356 1351 1346 1340 1334 1327 1320 1314 1307 1300
1447 1446 1444 1442 1440 1437 1435 1433 1431 1428 1426 1424 1422 1420 1418 1416 1413 1411 1408 1406 1403 1401 1398 1395 1392 1388 1384 1380 1376 1372 1368 1364 1359 1355 1350 1344 1338 1331 1325 1318 1312 1305 1299
1445 1443 1441 1439 1437 1435 1433 1430 1428 1426 1423 1421 1419 1417 1415 1413 1411 1408 1406 1403 1401 1398 1395 1392 1389 1385 1381 1377 1373 1369 1365 1360 1356 1352 1347 1341 1335 1328 1322 1316 1310 1303 1297